Location: Port Stanley
(42.6641°N, 81.2156°W)
Time: 10:05:00
(UTC-04:00)

ISS - Pass Details

Date: 03 July 2019
Orbit: 409 x 418 km, 51.6° (Epoch: 18 July)

Event Time Altitude Azimuth Distance (km) Brightness Sun altitude
Exits shadow 04:20:38 26° 226° (SW) 845 -2.8 -13.4°
Maximum altitude 04:22:21 76° 145° (SE) 426 -3.8 -13.2°
Drops below altitude 10° 04:25:39 10° 59° (ENE) 1,476 0.3 -12.8°
Sets 04:27:44 0° 58° (ENE) 2,339 1.7 -12.5°
